GW5434 Weather Reports


time (UTC)temp
C
wind
direction
speed
KPH
gust
KPH
rain 1hr
cm
rain 24hr
cm
rain mn
cm
humidity
%
barometer
mb
20260905163031 30 330 4.8 14.5 0.00 0.18 0.00 75 1015.2
20260905161531 29 130 0.0 8.0 0.00 0.18 0.00 79 1015.5
20260905160019 28 5 3.2 8.0 0.00 0.64 0.00 81 1015.6
20260905154523 28 289 1.6 4.8 0.00 0.84 0.00 81 1015.7
20260905153045 28 79 0.0 1.6 0.00 0.89 0.00 83 1015.6
20260905151539 27 70 0.0 4.8 0.00 0.89 0.00 86 1015.5
20260905150032 26 42 0.0 4.8 0.00 0.89 0.00 87 1015.5
20260905144523 26 334 1.6 8.0 0.00 0.89 0.00 87 1015.5
20260905143030 25 276 0.0 0.0 0.00 0.89 0.00 91 1015.4
20260905141530 24 324 0.0 3.2 0.00 0.89 0.00 94 1015.5
20260905140032 24 24 0.0 3.2 0.00 0.89 0.00 95 1015.5
20260905134522 24 40 0.0 3.2 0.00 0.89 0.00 95 1015.4
20260905133030 24 346 0.0 3.2 0.00 0.89 0.00 96 1015.3
20260905131536 23 344 0.0 3.2 0.00 0.89 0.00 96 1015.3
20260905130039 23 110 0.0 0.0 0.00 0.89 0.00 96 1015.0
20260905124514 23 110 0.0 1.6 0.00 0.89 0.00 96 1015.0
20260905123017 23 82 0.0 3.2 0.00 0.89 0.00 96 1015.0
20260905121524 23 44 0.0 3.2 0.00 0.89 0.00 96 1014.8
20260905120027 23 345 0.0 3.2 0.00 0.89 0.00 96 1014.5
20260905114532 23 184 0.0 0.0 0.00 0.89 0.00 96 1014.4
20260905113017 23 185 0.0 0.0 0.00 0.89 0.00 96 1014.4
20260905111540 23 185 0.0 1.6 0.00 0.89 0.00 96 1014.4
20260905110027 23 184 0.0 0.0 0.00 0.89 0.00 96 1014.4
20260905104529 23 184 0.0 0.0 0.00 0.89 0.00 96 1014.4
20260905103031 23 200 0.0 0.0 0.00 0.89 0.00 96 1014.4
20260905101516 23 200 0.0 0.0 0.00 0.89 0.00 96 1014.5
20260905100025 23 186 0.0 1.6 0.00 0.89 0.00 96 1014.6
20260905094526 23 184 0.0 0.0 0.00 0.89 0.00 96 1014.5
20260905093030 23 184 0.0 0.0 0.00 0.89 0.00 95 1014.4
20260905091534 23 184 0.0 0.0 0.00 0.89 0.00 96 1014.2
20260905090019 23 184 0.0 0.0 0.00 0.89 0.00 95 1014.3
20260905084527 23 227 0.0 0.0 0.00 0.89 0.00 95 1014.2
20260905083028 23 227 0.0 0.0 0.00 0.89 0.00 96 1014.1
20260905081534 23 227 0.0 0.0 0.00 0.89 0.00 95 1014.0
20260905080031 23 227 0.0 1.6 0.00 0.89 0.00 95 1013.9
20260905074521 23 185 0.0 1.6 0.00 0.89 0.00 95 1013.8
20260905073034 23 185 0.0 0.0 0.00 0.89 0.00 95 1013.9
20260905071541 23 216 0.0 1.6 0.00 0.89 0.00 95 1014.0
20260905070033 23 139 0.0 1.6 0.00 0.89 0.00 95 1014.0
20260905064536 23 106 0.0 0.0 0.00 0.89 0.00 95 1014.0
20260905063023 23 106 0.0 0.0 0.00 0.89 0.00 95 1014.0
20260905061531 23 106 0.0 0.0 0.00 0.89 0.00 95 1014.0
20260905060036 23 106 0.0 0.0 0.00 0.89 0.00 94 1013.9
20260905054542 23 106 0.0 0.0 0.00 0.89 0.00 94 1014.0
20260905053033 23 107 0.0 0.0 0.00 0.89 0.00 94 1013.8
20260905051527 23 106 0.0 0.0 0.00 0.89 0.00 94 1013.9
20260905050031 23 106 0.0 1.6 0.00 0.89 0.00 94 1014.0
20260905044530 24 106 0.0 0.0 0.00 0.89 0.89 94 1014.1
20260905043031 24 106 0.0 0.0 0.00 0.89 0.89 94 1014.2
20260905041533 24 73 0.0 0.0 0.00 0.89 0.89 94 1014.4
20260905040029 24 122 0.0 0.0 0.00 0.89 0.89 94 1014.5
20260905034509 25 122 0.0 0.0 0.00 0.89 0.89 94 1014.7
20260905033013 25 122 0.0 0.0 0.00 0.89 0.89 94 1014.9
20260905031520 25 221 0.0 3.2 0.00 0.89 0.89 94 1014.7
20260905030024 25 215 0.0 0.0 0.00 0.89 0.89 94 1015.1
20260905024530 25 110 0.0 0.0 0.00 0.89 0.89 94 1015.2
20260905023018 25 110 0.0 0.0 0.00 0.89 0.89 94 1014.9
20260905021516 25 110 0.0 0.0 0.00 0.89 0.89 93 1014.9
20260905020024 25 110 0.0 0.0 0.00 0.89 0.89 93 1014.6
20260905014526 25 110 0.0 0.0 0.00 0.89 0.89 93 1014.6
20260905013031 25 110 0.0 0.0 0.00 0.89 0.89 93 1014.6
20260905011510 25 109 0.0 0.0 0.00 0.89 0.89 93 1014.5
20260905010018 25 109 0.0 0.0 0.00 0.89 0.89 93 1014.4
20260905004532 26 109 0.0 0.0 0.00 0.89 0.89 92 1014.3
20260905003004 26 109 0.0 0.0 0.00 0.89 0.89 92 1014.4
20260905001508 26 109 0.0 0.0 0.00 0.89 0.89 91 1014.5
20260905000014 26 109 0.0 0.0 0.00 0.89 0.89 91 1014.7
20260904234520 26 150 0.0 0.0 0.00 0.89 0.89 90 1014.9
20260904233025 26 212 0.0 0.0 0.00 0.89 0.89 90 1014.9
20260904231509 26 243 0.0 0.0 0.00 0.89 0.89 90 1014.8
20260904230012 26 241 0.0 1.6 0.00 0.89 0.89 90 1014.8
20260904224512 26 266 0.0 0.0 0.03 0.89 0.89 89 1014.5
20260904223029 26 338 0.0 1.6 0.03 0.89 0.89 89 1014.3
20260904221529 26 53 0.0 1.6 0.03 0.89 0.89 89 1014.2
20260904220008 26 124 0.0 3.2 0.03 0.89 0.89 89 1014.1
20260904214512 27 134 0.0 3.2 0.00 0.86 0.86 88 1013.9
20260904213026 27 136 1.6 3.2 0.00 0.86 0.86 87 1013.7
20260904211526 27 95 0.0 3.2 0.00 0.86 0.86 84 1013.9
20260904210036 28 115 1.6 9.7 0.00 0.86 0.86 83 1013.8
20260904204519 28 120 3.2 12.9 0.00 0.86 0.86 81 1013.9
20260904203014 30 216 1.6 8.0 0.00 0.86 0.86 78 1013.8
20260904201518 30 287 3.2 8.0 0.00 0.86 0.86 76 1013.6
20260904200027 30 283 1.6 8.0 0.00 0.86 0.86 77 1013.8
20260904194529 29 203 0.0 8.0 0.00 0.86 0.86 79 1013.9
20260904193033 29 345 1.6 4.8 0.00 0.86 0.86 78 1013.9
20260904191514 27 311 3.2 6.4 0.00 0.86 0.86 82 1014.6
20260904190029 27 307 4.8 9.7 0.00 0.86 0.86 85 1015.0
20260904184529 27 250 3.2 11.3 0.00 0.86 0.86 84 1015.4
20260904183029 26 217 3.2 11.3 0.08 0.86 0.86 86 1015.8
20260904181530 26 257 0.0 8.0 0.15 0.86 0.86 90 1015.9
20260904180017 26 208 3.2 8.0 0.15 0.86 0.86 91 1016.3
20260904174529 26 243 0.0 6.4 0.15 0.86 0.86 91 1016.4
20260904173028 26 217 1.6 4.8 0.08 0.79 0.79 90 1016.4
20260904171537 26 288 0.0 4.8 0.00 0.71 0.71 89 1016.3
20260904170035 26 275 1.6 6.4 0.46 0.71 0.71 90 1016.4
20260904164518 25 224 0.0 3.2 0.66 0.71 0.71 90 1016.5